Wetbulb
66.32 64.08 63.38 58.93 48.69 48.68 47.12 50.85 55.67 54.80 55.98 60.03 61.10 59.92 59.80 62.03 63.96 60.89 75.28 75.64 76.36 75.95 76.82 77.37 78.57 78.22 77.84 77.39 76.98 76.60 76.37 76.47 76.52 76.35 76.75 76.70 77.31 77.38 77.03 77.18 77.44 77.68 77.65 76.65 76.05 75.37 74.83 74.69 74.29
64.53 63.89 62.30 53.96 45.21 43.18 45.96 52.68 53.36 56.28 58.57 60.41 59.87 59.69 59.62 59.95 70.51 71.35 72.80 77.14 76.93 76.35 76.05 76.70 78.29 78.04 77.87 77.28 76.83 76.52 76.47 76.47 76.60 76.47 76.80 76.98 77.20 77.26 77.08 77.01 77.26 77.48 76.91 76.44 75.75 74.99 74.53 74.32 74.23
64.32 66.01 55.00 49.68 46.17 43.21 45.07 51.47 54.65 57.46 59.47 59.78 58.53 60.45 60.05 62.97 70.90 72.40 75.93 77.69 77.17 76.50 75.79 77.56 78.04 77.81 77.71 77.41 76.85 76.39 76.40 76.27 76.60 76.53 76.75 77.13 77.26 77.28 77.08 76.91 76.63 76.64 76.19 75.72 75.22 74.73 74.52 74.32 73.87
58.89 58.55 54.81 46.98 45.39 48.37 48.59 50.69 52.85 53.74 56.62 60.71 60.16 57.31 61.50 72.96 72.15 74.77 76.41 77.83 76.85 75.95 76.20 77.49 77.65 77.55 77.46 77.25 76.77 76.47 76.37 76.55 76.55 76.55 76.80 77.06 77.13 77.27 77.20 76.86 76.35 76.09 75.33 74.65 74.40 74.47 74.38 74.03 73.50
59.88 55.79 48.03 46.86 46.92 49.45 51.83 53.46 54.14 53.01 54.45 57.55 59.97 57.88 61.11 70.98 74.83 75.22 75.60 77.58 76.63 76.00 77.02 77.16 77.53 77.38 77.23 77.11 76.93 76.62 76.47 76.29 76.32 76.73 76.88 77.08 77.02 76.97 77.10 76.83 76.58 76.36 75.84 74.89 74.29 74.16 74.10 73.82 73.12
53.22 53.98 46.45 44.87 47.51 50.84 52.88 54.01 53.59 53.55 54.52 55.27 56.81 58.80 62.47 70.74 72.61 74.55 75.58 77.13 77.23 76.36 76.30 76.51 77.48 77.22 77.02 76.90 76.72 76.37 76.12 76.02 76.27 76.39 76.60 76.79 76.87 76.87 76.73 76.61 76.43 76.10 75.64 74.88 74.01 73.54 73.63 73.51 72.66
50.69 49.75 45.99 46.31 46.89 49.29 52.35 55.74 53.53 53.07 53.64 53.69 57.12 54.98 64.18 68.76 72.59 74.80 75.72 77.19 77.63 76.95 75.94 75.78 76.89 77.24 77.27 76.69 76.31 75.99 75.74 75.66 76.06 76.16 76.36 76.43 76.74 76.49 76.52 76.18 76.10 75.65 75.10 74.47 73.75 73.17 73.13 73.08 72.65
51.08 49.66 46.60 47.67 46.63 46.96 52.25 53.86 55.68 54.74 53.46 57.67 57.42 52.95 58.71 70.65 73.20 74.77 75.27 76.41 76.86 76.64 75.07 74.51 75.79 76.09 75.88 75.96 76.49 76.06 75.86 75.98 76.10 76.38 76.42 76.35 76.26 76.09 76.02 75.64 75.40 74.60 74.32 74.09 73.39 73.05 72.93 72.99 73.05
52.94 45.65 44.32 45.83 47.12 48.89 53.09 52.14 55.41 57.20 55.38 55.58 56.26 56.07 66.58 71.54 72.94 73.58 74.30 75.36 75.96 76.00 74.54 73.70 73.98 75.19 75.30 75.30 75.89 76.21 76.34 76.26 76.28 76.11 76.03 74.75 73.63 73.82 73.84 73.99 74.90 74.30 73.92 73.61 73.28 73.05 72.88 73.05 73.58
47.04 44.75 45.01 49.53 50.16 49.36 51.61 51.94 52.93 53.74 53.97 53.51 54.72 56.94 61.89 67.97 69.77 71.26 73.46 73.30 74.36 74.14 73.30 73.19 72.40 72.89 73.78 74.69 75.15 75.01 75.22 74.62 73.72 73.53 74.27 72.76 73.19 72.51 72.41 73.82 74.83 74.60 74.17 74.04 73.80 73.70 73.95 73.90 70.85
46.57 43.73 47.55 48.52 50.23 50.99 49.95 49.85 52.32 51.12 51.26 53.72 53.05 54.92 57.11 59.98 67.22 68.56 71.17 73.71 74.52 74.62 73.56 72.44 72.10 71.96 71.68 72.79 73.50 73.21 73.50 72.92 72.18 72.67 73.17 73.05 72.88 72.92 72.84 72.85 72.08 72.78 73.83 72.27 72.84 72.38 71.85 68.93 69.28
45.01 46.61 46.86 47.64 49.28 49.20 48.38 50.25 49.28 51.42 53.02 56.20 56.35 56.47 56.40 57.01 61.09 68.18 69.80 72.35 73.85 73.52 73.32 72.54 72.39 71.87 71.38 72.01 71.23 71.55 70.45 70.45 70.94 72.65 72.50 72.42 74.87 73.02 72.79 71.88 70.24 71.37 71.30 70.92 70.37 69.64 70.49 72.16 72.60
46.29 46.89 48.17 48.63 48.20 47.79 48.34 47.48 48.38 50.21 54.72 56.59 56.55 57.18 56.36 56.72 58.18 65.12 69.59 72.29 73.70 73.44 73.36 72.52 72.04 71.68 72.66 69.81 70.91 70.38 69.73 69.72 70.82 73.19 72.28 73.42 74.48 73.46 72.91 73.09 70.37 70.51 70.70 70.09 71.27 70.93 73.25 72.86 73.54
48.72 48.36 48.08 48.43 47.96 48.22 46.72 46.73 47.57 49.63 54.49 54.92 54.82 55.25 56.59 57.03 57.79 61.17 67.96 69.19 74.10 74.36 73.15 73.18 71.99 73.31 72.72 70.70 71.65 70.80 70.74 70.41 70.90 72.43 71.72 73.71 74.56 74.20 73.58 73.93 72.32 73.25 72.24 72.00 71.42 72.55 73.75 72.17 72.94
49.08 45.60 47.20 47.71 48.00 46.89 48.07 44.41 44.68 49.07 51.50 52.84 53.52 54.74 56.32 57.54 58.22 59.45 61.60 68.90 72.45 73.38 73.14 71.70 72.31 74.68 73.54 72.89 73.91 72.81 72.35 72.08 71.59 72.43 72.84 75.02 74.58 74.87 74.35 73.24 71.19 71.32 71.76 73.46 73.69 73.94 73.78 73.37 73.73
45.47 45.35 40.60 46.02 47.42 47.71 46.75 40.22 46.36 49.17 49.28 49.01 51.02 52.71 54.85 56.98 57.82 59.76 61.49 63.44 71.87 74.56 72.34 73.43 72.67 73.30 74.60 74.52 73.71 73.82 74.62 73.97 74.38 74.08 73.78 74.46 74.41 75.11 74.85 73.18 72.25 72.53 72.73 73.69 72.71 73.16 70.98 71.34 71.57
44.52 39.49 41.63 43.47 47.86 46.74 45.28 41.77 46.74 49.54 49.69 49.34 50.06 51.34 52.90 55.36 58.41 60.45 60.96 62.46 74.85 75.26 72.18 72.34 72.96 73.35 74.66 75.32 75.58 76.31 75.85 74.83 74.75 74.75 74.06 74.88 74.03 74.51 74.38 72.87 72.90 73.43 73.67 74.29 74.88 73.24 72.66 71.18 68.75
39.61 40.69 42.52 42.49 46.48 46.18 44.07 43.36 46.42 48.13 48.58 48.94 50.28 51.38 51.59 53.12 55.67 58.87 61.61 62.10 68.39 75.99 73.30 72.45 73.08 73.80 74.68 74.55 74.81 75.60 74.32 75.62 75.25 74.62 74.64 75.24 74.83 74.69 73.84 72.70 75.87 74.73 73.45 74.01 73.53 72.38 71.08 69.19 67.74
44.36 43.09 41.96 44.64 47.13 45.18 43.90 44.00 45.92 48.26 47.80 48.02 49.48 50.70 51.77 52.51 55.91 58.17 61.32 61.90 68.52 74.92 74.17 73.44 72.71 74.00 74.28 74.19 72.62 73.47 72.68 74.85 74.11 75.66 75.21 75.55 75.33 74.06 73.54 74.92 74.55 74.25 73.20 73.33 72.87 71.94 69.95 66.87 67.42
44.50 42.09 41.75 44.48 46.70 45.70 44.41 44.11 45.99 47.37 47.83 48.11 49.32 50.54 52.43 53.31 54.33 57.21 60.40 63.12 67.89 75.02 74.31 73.75 73.75 73.48 73.75 74.55 74.08 74.40 72.71 74.02 73.84 74.85 75.23 75.32 75.44 74.84 73.95 75.10 72.92 71.77 71.05 69.96 68.94 69.49 67.26 66.57 65.82
43.94 41.88 42.08 41.50 44.88 46.30 44.09 42.57 44.88 47.07 49.11 49.84 49.69 51.54 52.86 53.69 54.61 57.45 60.06 61.29 63.05 74.35 74.25 73.21 72.96 74.03 73.97 74.40 74.42 75.00 73.28 73.88 72.54 73.43 73.53 74.22 74.19 74.01 74.68 73.70 71.96 71.24 69.98 66.68 66.33 66.36 65.62 63.95 64.02
39.97 45.46 44.42 43.00 41.19 36.64 44.63 33.89 42.17 45.62 46.66 48.74 49.86 49.98 50.91 53.05 56.07 57.93 59.95 61.83 63.43 73.98 74.69 74.16 74.35 74.30 74.46 74.58 74.31 73.47 70.93 69.92 72.16 71.77 73.33 73.87 74.32 73.43 71.78 71.23 69.67 68.91 67.78 67.27 66.68 66.29 65.06 63.44 62.22
42.43 46.01 44.34 43.64 41.06 39.73 40.41 35.62 40.66 45.13 44.37 46.85 49.51 49.86 51.17 52.63 54.84 56.41 59.02 60.96 69.60 74.43 74.15 74.38 74.52 74.28 74.85 74.69 73.85 72.97 71.41 73.21 72.35 73.02 72.66 72.02 70.17 69.93 69.65 69.69 68.66 66.74 65.99 65.33 64.29 62.81 64.22 62.96 61.78
46.72 43.73 43.46 42.93 40.28 32.88 38.23 36.60 37.82 41.76 45.05 46.65 49.97 50.75 51.02 51.83 53.96 56.05 58.56 60.80 72.07 74.30 74.14 74.56 73.78 72.96 73.58 73.54 73.63 73.33 71.61 71.06 71.32 70.59 68.29 68.03 67.99 68.29 67.61 67.78 67.67 67.95 66.54 65.99 64.14 63.71 63.50 62.62 61.90
43.86 40.59 33.23 31.26 31.26 30.16 39.70 36.94 40.07 45.36 47.86 48.77 48.91 49.42 51.57 52.21 52.85 54.77 56.46 59.65 69.41 72.07 72.92 72.93 72.44 70.43 71.06 72.97 73.69 72.11 71.42 71.31 70.84 68.72 66.93 66.27 64.93 65.06 65.29 67.03 66.90 65.53 65.25 64.70 63.97 63.15 62.23 61.77 60.77
40.01 38.97 32.52 25.32 27.46 30.19 39.20 33.19 39.11 48.13 50.25 51.05 50.71 50.79 52.80 52.10 52.28 53.88 56.57 59.16 71.30 72.51 72.21 72.22 70.47 70.92 71.34 72.51 71.91 71.33 71.44 70.34 69.49 66.97 67.68 67.75 64.55 65.01 67.46 65.42 64.63 63.76 63.16 62.72 64.10 62.21 60.84 61.68 60.71
38.36 35.98 40.36 32.77 34.43 31.79 34.80 39.08 44.22 46.76 48.01 49.27 49.46 50.63 51.40 52.89 52.70 53.78 56.34 58.78 70.44 71.44 71.72 71.59 70.59 71.33 71.67 72.10 71.62 71.16 71.47 69.51 67.32 68.84 67.56 66.16 65.78 65.49 64.57 63.72 62.73 62.68 62.81 63.25 62.86 61.25 60.38 60.63 60.02
41.53 43.37 34.72 34.17 26.62 25.74 33.02 35.95 37.41 43.03 44.76 46.35 48.58 49.85 51.22 53.95 53.23 53.83 55.83 59.40 70.54 71.48 71.82 71.82 71.77 71.26 71.69 71.65 71.13 71.23 68.89 68.38 68.73 67.05 65.88 65.44 65.72 64.46 63.19 62.36 61.89 61.52 61.87 61.92 61.75 60.41 60.89 60.49 60.17
38.70 37.06 37.89 37.42 34.83 28.81 27.60 33.08 43.45 44.38 45.59 44.21 48.11 50.03 51.28 52.35 52.86 53.34 56.08 67.30 70.91 70.98 71.01 70.74 71.13 71.45 70.81 70.62 70.99 69.06 67.64 67.69 66.46 66.37 65.72 64.79 64.12 63.29 61.99 61.72 61.23 60.73 60.78 61.44 60.54 60.54 60.32 60.02 59.35
42.50 39.36 38.64 32.67 30.39 35.41 33.09 32.73 45.94 46.68 47.02 47.55 48.46 50.61 52.10 52.64 53.24 53.94 63.90 66.17 65.42 69.40 68.46 69.54 69.88 69.70 69.15 69.94 67.43 66.48 65.65 65.37 65.64 64.30 63.72 63.91 62.33 62.09 61.46 60.74 60.06 59.92 60.25 61.11 60.30 59.27 59.96 59.32 58.48
MSLP
1009.07 1008.31 1007.43 1006.07 1005.28 1002.93 1000.30 998.42 996.96 995.09 993.21 992.12 992.43 993.27 993.77 994.39 996.85 1000.81 1000.75 1000.29 1000.43 1001.71 1003.27 1004.09 1004.98 1005.91 1006.57 1007.27 1007.75 1008.18 1008.59 1009.19 1009.55 1009.91 1010.35 1010.65 1011.07 1011.41 1011.71 1011.98 1012.25 1012.45 1012.67 1012.99 1013.21 1013.42 1013.58 1013.67 1013.82
1008.67 1007.21 1006.32 1005.23 1003.73 1001.34 998.98 997.59 995.93 994.42 993.30 992.54 992.99 993.59 994.26 995.05 996.47 998.97 1000.21 1000.13 1001.21 1001.92 1003.19 1004.19 1004.87 1005.93 1006.67 1007.30 1008.02 1008.46 1008.83 1009.52 1009.71 1010.23 1010.68 1010.93 1011.27 1011.74 1012.09 1012.35 1012.62 1012.83 1013.07 1013.37 1013.55 1013.73 1013.84 1013.92 1014.01
1008.75 1007.27 1005.85 1004.09 1002.35 1000.25 998.31 996.65 994.92 993.78 992.95 992.53 993.27 994.21 994.48 995.09 996.53 997.86 998.91 1000.20 1001.69 1002.41 1003.29 1004.21 1004.94 1006.06 1006.80 1007.42 1008.11 1008.60 1009.00 1009.64 1010.05 1010.46 1010.93 1011.25 1011.56 1012.00 1012.36 1012.58 1012.91 1013.16 1013.35 1013.56 1013.77 1013.94 1014.09 1014.10 1014.13
1007.13 1006.04 1005.42 1003.13 1000.67 999.09 998.18 997.08 995.39 994.15 993.13 992.23 993.24 994.22 994.29 995.33 996.03 997.45 998.96 1000.07 1001.61 1002.58 1003.47 1004.58 1005.24 1005.99 1006.92 1007.59 1008.24 1008.72 1009.17 1009.82 1010.32 1010.68 1011.11 1011.54 1011.83 1012.22 1012.59 1012.83 1013.15 1013.35 1013.52 1013.72 1013.92 1014.12 1014.20 1014.26 1014.32
1006.69 1005.34 1003.94 1001.91 1000.16 999.04 997.70 996.35 995.33 994.44 993.71 993.42 993.54 994.25 994.51 995.62 996.37 997.64 998.65 999.91 1001.15 1002.56 1003.89 1004.83 1005.57 1005.98 1006.98 1007.74 1008.35 1008.91 1009.26 1009.96 1010.46 1010.92 1011.29 1011.72 1011.99 1012.42 1012.81 1013.04 1013.32 1013.55 1013.74 1013.88 1014.01 1014.17 1014.34 1014.37 1014.47
1006.03 1005.26 1003.37 1001.05 999.83 998.43 997.19 996.56 995.81 994.67 994.16 994.03 994.10 994.27 995.05 996.04 996.67 997.43 998.47 999.66 1000.93 1002.37 1004.14 1005.16 1005.88 1006.32 1006.95 1007.72 1008.49 1009.01 1009.47 1010.15 1010.59 1011.03 1011.51 1011.88 1012.20 1012.59 1012.91 1013.15 1013.42 1013.75 1013.80 1014.03 1014.13 1014.27 1014.37 1014.47 1014.55
1005.73 1004.33 1002.53 1001.24 999.68 997.93 996.71 995.96 995.33 995.00 994.43 994.54 994.83 994.66 995.11 995.72 996.41 997.46 998.27 999.39 1000.85 1002.71 1004.14 1005.50 1006.06 1006.73 1007.09 1007.77 1008.61 1009.10 1009.75 1010.22 1010.70 1011.15 1011.59 1011.89 1012.28 1012.73 1013.02 1013.24 1013.63 1013.76 1013.99 1014.05 1014.24 1014.26 1014.34 1014.50 1014.55
1005.51 1004.58 1002.63 1000.98 999.72 998.00 997.22 996.04 994.95 994.42 994.34 994.86 995.32 995.11 995.31 996.26 996.93 997.78 998.30 999.25 1000.57 1002.71 1004.28 1005.43 1006.09 1006.79 1006.97 1008.14 1008.78 1009.32 1009.91 1010.37 1010.90 1011.23 1011.59 1011.95 1012.30 1012.77 1013.07 1013.35 1013.67 1013.86 1014.10 1014.11 1014.21 1014.27 1014.28 1014.31 1014.34
1005.43 1004.25 1002.04 1001.23 1000.28 999.00 997.94 996.63 995.62 994.64 994.08 994.70 995.66 995.56 995.81 996.55 997.29 997.79 998.43 999.24 1000.27 1002.06 1004.04 1005.13 1006.02 1006.43 1006.96 1007.67 1008.87 1009.37 1009.92 1010.66 1011.07 1011.42 1011.63 1011.95 1012.22 1012.72 1013.06 1013.14 1013.37 1013.75 1014.03 1014.12 1014.16 1014.09 1014.07 1014.03 1013.96
1004.96 1003.59 1002.23 1001.91 1000.95 999.75 998.85 997.85 996.84 995.78 995.18 995.51 996.24 996.13 996.00 996.52 997.49 997.85 998.25 998.93 999.92 1001.53 1003.40 1004.53 1005.39 1006.17 1006.65 1007.55 1008.70 1009.19 1009.85 1010.46 1010.85 1011.19 1011.57 1011.61 1011.68 1012.19 1012.40 1013.01 1013.27 1013.59 1013.85 1013.98 1014.04 1013.92 1013.79 1013.79 1013.60
1004.30 1003.17 1002.84 1002.19 1001.54 1000.92 1000.11 999.36 998.65 997.30 995.92 995.63 996.48 996.63 995.77 995.97 996.87 997.85 997.99 998.38 999.21 1000.80 1002.65 1004.05 1004.89 1005.67 1006.13 1006.97 1008.33 1008.54 1009.39 1009.96 1010.39 1010.66 1011.17 1011.33 1011.24 1011.81 1012.20 1012.86 1013.09 1013.36 1013.59 1013.63 1013.74 1013.61 1013.54 1013.26 1013.05
1003.53 1003.23 1003.10 1002.56 1002.15 1001.82 1001.16 1000.74 999.77 998.58 997.10 996.40 996.30 996.64 996.31 995.83 996.35 997.47 997.75 997.82 998.34 999.86 1001.51 1003.01 1004.31 1005.01 1005.61 1006.87 1007.44 1008.08 1008.75 1009.43 1009.74 1010.31 1010.78 1011.08 1010.97 1011.40 1011.53 1011.99 1012.35 1012.59 1012.76 1012.86 1013.00 1012.83 1012.86 1012.62 1012.39
1003.50 1003.22 1002.87 1002.72 1002.59 1002.21 1001.91 1001.35 1000.69 999.52 998.40 998.03 997.53 997.10 996.67 996.09 996.20 996.82 997.69 997.65 997.93 998.89 999.79 1001.12 1002.85 1003.83 1004.57 1005.82 1006.51 1007.43 1008.13 1008.81 1009.32 1009.98 1010.40 1010.65 1010.63 1011.18 1011.24 1011.43 1011.60 1011.71 1011.99 1012.02 1012.36 1012.12 1012.24 1012.39 1012.15
1004.33 1003.77 1003.31 1002.85 1002.64 1002.63 1002.37 1001.67 1001.41 1000.27 999.79 999.23 998.95 998.28 997.52 997.05 996.33 996.36 997.27 997.69 998.09 998.59 998.82 999.22 1001.90 1003.17 1004.08 1004.67 1005.37 1006.48 1007.45 1008.15 1008.89 1009.60 1010.08 1010.35 1010.47 1010.93 1011.13 1011.19 1011.33 1011.45 1011.31 1011.42 1011.60 1011.73 1011.95 1012.12 1012.37
1004.71 1004.17 1003.57 1002.98 1002.72 1002.47 1002.65 1002.12 1001.55 1001.05 1000.49 1000.10 999.79 999.14 998.39 997.83 997.37 996.89 997.31 997.61 997.42 999.10 998.84 999.47 1001.70 1003.42 1003.81 1004.84 1005.18 1005.84 1006.83 1007.45 1008.43 1008.95 1009.63 1009.98 1010.39 1010.69 1010.93 1011.29 1011.57 1011.53 1011.28 1011.26 1011.32 1011.59 1011.71 1012.19 1012.42
1005.36 1004.55 1003.31 1002.30 1001.83 1001.44 1001.82 1001.10 1001.22 1001.21 1000.97 1000.29 1000.29 999.50 998.67 998.16 997.99 997.77 997.61 997.61 997.21 998.53 999.03 1001.41 1001.29 1003.26 1004.35 1004.15 1005.38 1005.37 1006.19 1007.18 1007.81 1008.38 1009.18 1009.84 1010.29 1010.61 1010.83 1011.20 1011.34 1011.17 1011.20 1011.37 1011.71 1011.91 1012.39 1012.61 1012.99
1004.45 1003.15 1002.11 1000.93 1000.39 1000.05 1000.50 1000.18 1000.25 1000.21 1000.20 1000.13 999.99 999.76 998.82 998.23 997.94 997.95 997.81 997.57 997.77 999.50 1001.19 1003.49 1001.83 1002.87 1004.34 1004.83 1005.19 1005.40 1006.11 1007.00 1007.32 1007.87 1008.81 1009.68 1010.14 1010.39 1010.76 1011.01 1010.92 1010.87 1011.22 1011.50 1011.80 1012.27 1012.56 1013.03 1013.11
1003.27 1002.21 1001.31 1000.38 1000.14 1000.13 1000.00 999.60 999.68 999.46 999.41 998.99 999.01 998.77 998.75 998.25 997.91 997.81 997.65 997.43 997.54 999.40 1000.16 1003.53 1002.81 1001.87 1003.21 1004.76 1005.05 1005.51 1006.57 1006.65 1006.91 1007.53 1008.41 1009.19 1009.80 1010.14 1010.70 1010.78 1010.75 1010.83 1011.67 1012.08 1012.25 1012.64 1013.14 1013.36 1014.11
1003.45 1002.93 1001.73 1000.90 1000.37 1000.14 999.89 999.65 999.48 999.02 998.49 998.23 998.03 997.75 997.57 997.53 997.48 997.33 997.10 997.18 997.24 998.90 1000.39 1000.73 999.16 1001.25 1002.49 1003.57 1004.63 1005.87 1006.21 1006.41 1006.70 1007.28 1008.11 1008.91 1009.35 1009.95 1010.57 1011.03 1011.19 1011.63 1012.12 1012.70 1012.96 1013.16 1013.62 1014.21 1014.77
1003.13 1002.56 1001.75 1001.04 1000.82 1000.46 999.89 999.15 998.65 998.63 998.60 998.00 997.51 996.67 996.24 996.24 996.58 996.35 996.33 996.68 996.83 998.53 999.91 1000.05 1001.10 1002.56 1002.29 1003.16 1004.12 1005.43 1005.76 1006.01 1006.49 1007.50 1008.29 1008.73 1009.19 1009.86 1010.56 1011.30 1011.84 1012.40 1012.81 1013.33 1013.71 1013.93 1014.58 1015.35 1015.73
1002.28 1002.11 1001.86 1001.41 1001.25 1000.53 1000.12 998.78 998.64 997.89 998.40 997.61 996.96 996.45 995.76 995.06 995.25 995.33 995.49 996.00 996.57 997.90 999.28 1000.11 1000.38 1001.36 1002.52 1003.43 1004.11 1004.48 1005.13 1005.79 1006.57 1007.51 1008.37 1008.97 1009.34 1009.94 1010.60 1011.41 1012.26 1012.92 1013.37 1014.15 1014.71 1015.00 1015.39 1015.91 1016.09
1001.06 1001.53 1001.82 1002.01 1001.64 1000.30 1000.91 998.68 998.32 998.12 997.17 996.77 996.58 995.93 995.57 995.07 994.51 994.79 995.01 995.39 996.09 997.49 999.05 999.69 1000.30 1001.29 1002.24 1002.88 1003.36 1003.83 1004.61 1005.49 1006.55 1007.58 1008.54 1009.33 1009.86 1010.53 1011.31 1011.94 1012.77 1013.51 1014.08 1014.61 1015.10 1015.44 1015.75 1015.88 1015.86
1001.32 1001.97 1002.49 1002.68 1002.20 1001.73 1000.60 1000.24 997.13 997.54 996.49 995.76 995.84 995.41 995.21 994.86 994.46 994.31 994.64 994.83 995.44 997.23 998.33 998.88 999.94 1000.97 1001.77 1002.28 1002.96 1003.83 1004.78 1005.77 1006.67 1008.00 1009.23 1010.33 1011.07 1011.47 1011.96 1012.73 1013.29 1013.79 1014.41 1015.06 1015.44 1015.64 1015.60 1015.49 1015.86
1001.83 1002.21 1002.62 1003.09 1003.12 1001.65 1000.30 1000.22 996.83 996.48 995.10 994.46 994.10 993.95 994.37 994.53 994.47 994.42 994.07 994.09 994.98 996.55 998.03 999.07 1000.10 1001.22 1002.33 1003.01 1003.65 1003.94 1004.89 1006.09 1007.39 1008.69 1010.10 1011.27 1011.91 1012.43 1012.73 1013.32 1013.41 1013.75 1014.48 1014.99 1015.44 1015.65 1015.81 1016.04 1016.33
1002.84 1003.19 1003.89 1003.53 1003.25 1000.40 1000.17 999.03 996.03 995.29 993.71 993.45 992.69 993.06 992.87 993.35 993.81 993.89 993.75 993.71 994.21 996.67 998.01 999.15 1000.21 1001.58 1002.48 1003.40 1003.68 1004.65 1005.23 1006.16 1007.51 1009.03 1010.50 1011.51 1012.45 1012.93 1013.40 1013.64 1013.77 1014.39 1014.73 1015.13 1015.70 1015.71 1016.01 1016.40 1016.65
1004.79 1005.07 1004.59 1004.03 1002.89 1001.41 1000.02 998.30 996.16 994.37 993.14 992.33 991.51 991.58 990.94 991.69 992.62 993.05 993.23 993.31 994.24 996.15 997.46 998.53 1000.46 1002.08 1002.90 1004.17 1004.59 1005.35 1006.06 1006.53 1007.84 1009.41 1010.62 1011.37 1012.55 1013.01 1013.38 1014.01 1014.43 1014.79 1015.06 1015.60 1015.77 1016.08 1016.23 1016.72 1017.07
1004.53 1005.05 1005.59 1004.95 1003.99 1002.69 999.43 997.05 996.03 994.06 992.69 991.71 991.13 990.92 990.37 990.31 991.29 992.14 992.73 992.76 994.04 995.45 996.97 998.17 1000.16 1001.32 1003.01 1004.03 1004.70 1005.69 1006.04 1006.84 1008.21 1009.61 1010.96 1011.66 1012.52 1013.12 1013.83 1014.44 1014.90 1015.27 1015.45 1015.67 1016.05 1016.39 1016.57 1016.85 1017.19
1003.15 1004.16 1005.45 1005.51 1003.80 1001.28 998.01 996.02 993.77 993.17 992.39 993.13 991.90 990.95 990.47 990.02 990.37 991.29 991.98 992.22 993.79 995.31 996.89 998.03 999.39 1000.75 1002.65 1003.80 1005.00 1005.00 1005.38 1006.79 1008.33 1009.57 1011.09 1012.10 1012.62 1013.41 1014.24 1014.80 1015.39 1015.62 1015.75 1015.91 1016.20 1016.57 1016.73 1016.99 1017.45
1002.83 1003.92 1004.59 1004.61 1003.52 1001.36 998.82 996.11 994.70 993.93 993.60 993.09 993.41 991.78 990.18 990.07 990.05 990.35 991.29 991.95 993.48 994.82 996.25 997.83 998.75 1000.33 1001.71 1003.19 1003.64 1004.44 1005.71 1007.66 1009.02 1009.90 1011.03 1011.87 1012.93 1013.75 1014.44 1014.98 1015.36 1015.68 1015.88 1016.15 1016.42 1016.67 1016.83 1016.99 1017.54
1001.71 1002.99 1003.61 1003.63 1002.17 1000.71 999.47 996.85 995.60 994.51 994.30 994.20 993.59 992.03 990.35 990.01 989.91 990.17 991.41 993.02 994.35 995.27 996.56 997.81 998.73 999.73 1001.85 1002.68 1004.08 1005.41 1006.92 1008.51 1009.53 1010.65 1011.51 1011.98 1013.29 1014.10 1014.55 1014.88 1015.26 1015.75 1016.05 1016.35 1016.48 1016.70 1016.79 1017.11 1017.67
Wind_Speed
13 12 10 9 7 9 17 21 21 24 25 10 8 9 15 12 11 6 3 1 24 21 18 19 19 19 18 17 17 17 17 16 16 16 14 14 12 14 13 12 11 12 12 11 10 10 10 9 8
13 16 10 7 10 14 16 21 24 21 20 2 6 5 11 11 20 20 15 17 21 20 16 16 20 19 18 18 17 17 17 16 16 15 13 13 13 12 12 11 11 11 11 10 10 9 9 8 7
13 17 9 7 14 17 18 21 21 22 20 8 4 8 12 6 20 11 19 21 20 18 15 16 21 19 19 18 18 18 18 17 16 15 14 13 13 12 11 11 11 11 11 10 9 9 8 7 6
7 7 8 13 22 21 27 22 28 28 26 12 7 10 6 11 6 14 20 22 20 20 15 17 20 21 18 18 19 18 18 17 16 15 14 13 12 12 11 11 10 10 10 10 9 8 7 6 4
10 9 13 17 25 26 23 22 22 20 24 9 9 13 3 11 14 19 17 19 18 19 17 16 19 21 20 18 19 18 18 17 16 15 14 13 13 11 11 10 10 9 9 9 8 7 5 4 3
10 11 16 19 25 26 23 22 25 25 20 11 16 13 2 14 14 16 17 18 18 18 17 15 18 20 20 19 19 18 18 16 16 15 14 13 13 12 11 10 10 8 8 7 7 6 5 3 3
17 15 21 25 25 26 23 22 22 22 22 15 14 19 7 17 19 16 16 18 19 21 17 14 14 15 19 18 18 18 17 16 15 15 14 14 13 12 10 10 8 8 7 7 6 5 4 3 3
15 16 27 24 21 28 23 26 24 21 24 15 14 19 6 15 14 15 14 17 21 20 17 15 13 15 14 14 16 17 16 15 15 15 15 14 14 11 10 10 8 7 6 7 6 5 5 5 6
18 17 19 27 27 24 24 25 23 25 15 14 16 19 9 15 9 13 14 17 19 19 17 15 14 14 12 14 14 16 17 15 14 13 15 12 8 8 10 8 12 9 8 7 6 6 7 8 11
19 18 25 23 23 24 25 26 28 26 13 11 14 21 10 18 10 7 14 16 20 20 19 16 15 13 15 11 13 12 12 10 9 10 10 7 8 8 11 11 11 9 8 7 8 8 10 9 6
18 20 22 24 24 25 27 28 29 26 25 13 16 22 23 15 16 12 14 18 20 20 16 18 15 14 15 13 9 7 7 7 7 10 9 8 6 6 7 5 5 5 8 5 7 7 6 9 7
18 18 20 23 22 23 25 26 28 26 24 17 13 17 21 19 11 12 15 17 20 24 23 22 18 14 13 11 9 8 8 7 6 7 10 6 3 6 5 6 7 6 6 7 8 6 6 7 2
16 16 16 15 17 19 21 24 26 28 26 20 20 22 15 16 16 17 13 13 17 24 27 27 24 19 16 16 11 10 8 8 7 7 8 5 4 4 4 5 6 7 8 6 7 3 4 4 6
18 19 19 19 14 16 19 23 23 27 24 21 22 24 19 20 13 13 14 15 13 5 25 28 26 19 18 15 15 10 9 9 9 7 7 6 3 4 3 1 2 2 2 4 5 4 3 3 2
15 17 17 19 16 19 19 22 25 25 26 24 24 24 22 21 20 8 10 10 11 18 13 23 24 16 18 15 13 12 11 10 9 8 9 6 5 5 3 3 3 4 2 3 3 2 2 3 4
20 20 19 17 21 23 21 23 22 22 24 26 27 26 24 19 21 18 13 12 11 18 25 12 17 15 13 13 8 10 10 8 7 7 7 6 6 6 3 3 5 4 3 3 3 0 5 5 1
18 19 22 23 22 17 17 26 22 20 22 24 27 26 25 20 18 18 20 14 7 18 18 16 11 17 13 11 8 7 10 8 8 9 9 8 7 8 4 4 4 2 2 1 3 5 4 3 5
19 18 20 19 17 10 17 20 19 21 21 21 24 24 27 25 22 20 19 17 8 16 25 31 23 18 18 10 8 5 8 5 6 8 10 11 7 7 4 4 4 4 6 3 4 5 6 5 5
22 23 25 23 24 20 18 18 20 23 18 20 20 24 26 28 24 22 17 18 9 16 19 24 22 20 13 11 9 8 8 6 6 5 14 10 6 7 5 1 7 5 5 5 4 5 5 6 6
23 25 26 26 23 24 21 28 21 17 21 20 23 22 19 24 27 24 19 13 9 17 18 14 19 18 11 10 10 11 9 7 6 9 10 7 6 8 5 5 6 6 6 8 7 7 5 5 4
22 24 24 25 24 27 24 27 25 22 22 24 21 23 22 21 22 17 17 20 15 18 17 16 16 17 13 14 10 7 10 6 6 8 7 6 7 6 8 8 7 5 5 6 6 5 4 2 2
25 21 21 24 23 19 18 19 21 23 20 21 26 22 23 22 19 19 14 14 17 20 18 19 19 19 16 17 10 7 8 10 10 8 6 5 8 10 12 10 9 6 5 5 5 4 3 2 2
25 24 15 17 21 17 24 15 21 17 25 25 20 22 23 24 18 15 18 17 20 23 21 19 20 20 19 17 13 10 11 7 9 10 11 10 10 10 10 9 8 8 6 5 5 3 3 4 3
25 25 20 15 12 17 17 17 23 21 25 21 26 23 27 25 22 20 20 19 21 23 21 18 20 20 20 16 14 13 18 14 11 11 9 7 6 6 10 8 7 8 7 5 5 6 6 6 5
15 14 4 10 11 17 13 18 20 23 23 30 20 22 28 27 26 25 24 17 22 23 20 19 19 20 18 16 15 15 17 17 15 13 9 10 8 8 8 9 7 7 6 7 5 6 6 5 4
7 8 7 7 5 8 19 7 15 21 25 23 19 25 23 29 27 26 22 19 24 24 23 21 23 21 14 16 14 13 15 11 12 13 9 9 9 8 9 9 8 8 8 6 4 5 6 5 4
4 8 2 7 11 15 18 23 15 22 18 19 19 8 22 23 27 26 24 23 27 24 24 24 23 24 26 17 16 16 15 17 14 13 11 10 11 9 9 10 8 8 7 5 7 5 5 4 3
14 8 5 5 7 17 13 18 12 12 8 13 19 15 19 12 26 24 25 22 26 24 22 24 24 26 24 21 18 16 18 17 15 15 14 13 11 13 11 10 9 8 6 5 6 5 5 4 5
4 6 8 8 9 7 14 11 7 8 9 2 19 21 16 15 16 25 21 16 26 25 25 26 25 25 22 20 17 19 18 16 16 14 14 14 13 12 12 10 9 8 7 6 6 5 5 6 5
18 15 15 7 10 12 14 13 12 7 8 5 16 19 14 16 20 21 15 17 16 22 23 26 25 24 22 19 20 20 18 16 16 15 14 15 13 11 10 9 9 9 7 5 5 6 5 8 6
Wind_Direction
281 253 248 257 244 229 248 244 247 265 279 281 308 331 323 359 114 145 96 236 123 136 139 136 134 137 138 139 136 135 134 137 130 129 133 132 126 118 118 118 118 116 115 113 106 98 96 94 85
290 259 239 272 240 242 243 242 253 252 252 287 12 285 287 299 99 142 168 128 127 132 140 140 133 140 141 141 139 137 136 138 133 135 136 136 127 123 118 114 114 114 115 112 104 101 101 97 93
262 251 249 223 237 242 255 257 253 233 258 222 154 266 269 76 118 110 123 129 125 131 149 136 135 140 143 143 142 142 139 140 137 139 139 139 129 122 117 115 114 114 114 113 110 107 105 107 104
246 227 253 256 247 235 241 264 282 290 298 191 178 248 167 70 74 113 132 132 135 141 141 137 138 140 142 144 143 141 138 140 141 142 140 138 127 119 116 114 115 117 118 116 113 114 119 115 114
240 267 235 242 244 250 262 266 255 267 272 273 200 237 207 104 113 122 136 135 143 146 125 138 141 138 144 146 143 142 140 143 144 143 141 137 126 120 115 115 117 119 118 121 124 124 122 124 110
241 230 248 242 249 259 257 248 267 276 276 283 270 229 196 123 127 135 147 145 148 141 134 139 143 142 143 143 143 142 140 145 142 142 140 132 127 123 123 122 124 126 128 130 133 129 133 136 113
244 238 242 251 258 263 259 248 249 246 261 255 271 280 170 161 135 140 148 150 143 126 135 141 146 145 137 140 144 143 144 144 143 143 139 134 127 128 128 125 128 132 138 144 148 146 151 154 157
253 253 260 255 256 261 267 275 277 243 250 235 249 258 248 82 120 130 149 149 145 133 139 147 150 151 144 142 141 140 141 141 144 141 137 133 130 133 132 130 138 147 158 155 159 164 175 191 219
245 251 251 254 257 269 278 277 277 281 264 207 254 265 101 105 132 147 154 164 149 139 143 153 157 153 154 143 147 137 138 141 141 142 140 139 156 167 158 171 146 160 170 169 172 182 200 215 235
246 244 253 258 270 282 286 284 287 280 256 212 250 267 222 142 149 183 165 168 156 145 150 156 160 158 153 149 149 150 150 158 168 167 162 178 168 179 175 141 152 167 174 182 190 203 216 228 243
239 252 266 268 281 289 298 301 303 301 283 194 228 246 262 183 150 193 203 181 165 152 154 161 160 167 160 138 172 155 156 163 173 167 170 219 167 141 137 145 163 174 194 195 199 214 225 228 234
245 257 267 276 278 284 286 297 295 291 278 308 258 231 258 252 180 189 214 204 167 155 161 158 159 169 154 145 165 155 157 162 152 164 186 211 201 172 177 161 178 188 173 216 194 209 211 222 239
276 277 281 284 282 280 278 273 278 284 292 308 313 302 285 269 211 180 216 232 165 167 163 163 161 175 153 154 156 162 163 162 154 158 188 216 140 172 197 196 180 193 173 202 194 227 175 203 236
292 298 291 292 288 280 278 279 269 271 285 290 296 294 287 286 279 180 186 233 157 218 166 157 159 171 147 158 152 154 152 166 155 157 184 215 178 178 199 52 341 287 238 174 209 203 143 248 36
293 281 278 265 261 260 263 263 265 270 264 272 272 277 275 276 289 244 240 239 236 163 301 146 150 161 150 157 154 154 155 166 162 163 170 191 182 170 148 165 223 264 256 294 44 13 209 355 80
278 271 271 268 252 242 231 258 252 250 262 261 262 271 271 255 265 280 255 243 252 168 161 293 142 151 152 146 152 149 147 154 158 151 149 195 180 156 179 208 194 245 222 146 252 352 64 78 89
253 252 251 256 244 244 243 240 241 245 242 242 245 252 264 262 248 239 258 252 181 149 127 106 183 153 154 146 149 150 145 164 172 151 153 179 173 155 182 240 180 207 223 28 79 64 86 127 48
272 284 286 284 293 294 258 258 252 250 256 249 238 234 235 252 248 253 230 243 210 152 134 160 166 159 156 154 150 149 156 185 170 153 152 163 176 154 202 246 97 87 56 69 83 83 56 56 41
274 272 278 281 288 277 259 255 267 276 242 258 242 235 235 226 240 237 234 225 197 153 160 158 169 150 153 153 162 152 164 193 153 124 130 152 167 146 180 0 91 85 87 68 74 81 58 55 13
277 279 276 278 281 278 271 282 257 255 284 248 272 245 254 214 225 226 218 210 185 157 161 160 141 164 149 155 170 169 169 174 147 126 136 149 143 132 142 103 100 97 102 71 50 36 72 55 20
252 259 271 278 282 279 278 263 263 252 256 258 242 266 265 227 216 225 212 193 204 159 164 164 159 160 162 166 183 165 153 152 118 128 124 136 125 131 119 105 102 79 84 79 72 60 58 61 43
277 267 273 296 269 265 266 273 263 272 263 243 248 241 255 267 208 215 219 203 181 163 168 166 172 164 172 172 179 167 158 156 134 137 118 103 100 76 84 87 91 114 107 108 74 77 113 172 349
278 290 274 283 273 277 255 264 271 246 249 252 254 225 242 252 251 228 224 213 171 163 172 175 171 166 173 176 177 162 151 111 130 112 109 87 81 93 95 88 101 97 93 88 117 152 187 81 39
267 263 264 256 270 259 254 248 262 255 256 248 241 218 221 231 239 241 240 209 171 167 171 167 167 174 173 173 175 162 130 125 126 117 104 104 103 98 99 116 121 110 126 128 84 65 57 62 44
340 286 266 228 213 250 269 248 246 260 250 249 226 240 211 210 220 227 237 223 180 165 169 166 164 170 174 186 155 138 132 133 131 121 125 127 111 112 122 117 107 98 97 88 88 94 85 63 66
303 267 227 284 249 294 288 258 284 265 245 261 250 227 213 199 205 219 223 226 160 166 167 160 163 156 163 177 134 130 134 128 117 125 147 139 131 124 120 94 93 96 95 111 122 67 72 43 80
245 235 307 286 275 270 260 265 238 271 270 250 252 242 257 197 196 208 214 221 165 163 165 160 163 160 167 146 138 139 137 121 126 137 113 118 118 116 103 108 112 104 110 107 89 75 87 88 73
245 254 213 194 257 263 254 274 256 230 208 343 321 214 252 258 193 200 213 214 160 161 164 164 170 161 157 145 151 142 123 122 131 121 125 125 132 113 114 111 114 115 102 91 118 112 86 73 65
220 217 211 252 242 271 288 288 23 350 33 323 299 310 221 243 263 195 208 178 160 163 163 171 165 152 143 145 134 122 119 120 123 119 123 118 114 118 122 127 117 106 99 97 97 108 115 102 101
272 231 231 226 246 239 255 271 279 301 302 302 288 289 284 228 241 199 172 138 148 165 168 172 160 139 142 127 117 117 116 124 120 118 118 116 119 118 115 112 108 98 102 110 97 69 66 79 79